Time,TemperatureF,DewpointF,PressureIn,WindDirection,WindDirectionDegrees,WindSpeedMPH,WindSpeedGustMPH,Humidity,HourlyPrecipIn,Conditions,Clouds,dailyrainin,SolarRadiationWatts/m^2,SoftwareType,DateUTC
2013-01-03 00:02:00,17.2,12.4,30.10,WSW,257,0.0,0.0,81,0.00,OVC,,0.00,0.0,WeatherDisplay:10.37,2013-01-03 06:02:00,
2013-01-03 00:07:00,17.4,12.6,30.10,WSW,257,0.0,0.0,81,0.00,OVC,,0.00,0.0,WeatherDisplay:10.37,2013-01-03 06:07:00,
2013-01-03 00:12:00,17.5,12.4,30.09,WSW,257,0.0,0.0,80,0.00,OVC,,0.00,0.0,WeatherDisplay:10.37,2013-01-03 06:12:00,
2013-01-03 00:20:00,17.6,12.5,30.10,WSW,257,1.1,0.0,80,0.00,OVC,,0.00,0.0,WeatherDisplay:10.37,2013-01-03 06:20:00,
2013-01-03 00:25:00,17.6,12.8,30.10,WSW,257,0.0,0.0,81,0.00,OVC,,0.00,0.0,WeatherDisplay:10.37,2013-01-03 06:25:00,
2013-01-03 00:30:00,17.6,12.5,30.10,WSW,257,0.0,0.0,80,0.00,OVC,,0.00,0.0,WeatherDisplay:10.37,2013-01-03 06:30:00,
2013-01-03 00:35:00,17.7,12.6,30.10,WSW,257,0.0,0.0,80,0.00,OVC,,0.00,0.0,WeatherDisplay:10.37,2013-01-03 06:35:00,
2013-01-03 00:40:00,17.7,12.6,30.10,WSW,257,0.0,0.0,80,0.00,OVC,,0.00,0.0,WeatherDisplay:10.37,2013-01-03 06:40:00,
2013-01-03 00:45:00,17.6,12.5,30.10,WSW,257,0.0,0.0,80,0.00,OVC,,0.00,0.0,WeatherDisplay:10.37,2013-01-03 06:45:00,
2013-01-03 00:50:00,17.6,12.8,30.10,WSW,257,0.0,0.0,81,0.00,OVC,,0.00,0.0,WeatherDisplay:10.37,2013-01-03 06:50:00,
2013-01-03 00:55:00,17.6,12.8,30.10,WSW,257,0.0,0.0,81,0.00,OVC,,0.00,0.0,WeatherDisplay:10.37,2013-01-03 06:55:00,
2013-01-03 01:00:00,17.6,12.8,30.10,WSW,257,0.0,0.0,81,0.00,OVC,,0.00,0.0,WeatherDisplay:10.37,2013-01-03 07:00:00,
2013-01-03 01:05:00,17.7,12.9,30.10,WSW,257,0.0,0.0,81,0.00,OVC,,0.00,0.0,WeatherDisplay:10.37,2013-01-03 07:05:00,
2013-01-03 01:10:00,17.8,13.0,30.10,WSW,257,0.0,0.0,81,0.00,OVC,,0.00,0.0,WeatherDisplay:10.37,2013-01-03 07:10:00,
2013-01-03 01:15:00,17.7,12.9,30.09,WSW,257,0.0,0.0,81,0.00,OVC,,0.00,0.0,WeatherDisplay:10.37,2013-01-03 07:15:00,
2013-01-03 01:20:00,17.5,12.9,30.09,WSW,257,0.0,0.0,82,0.00,OVC,,0.00,0.0,WeatherDisplay:10.37,2013-01-03 07:20:00,
2013-01-03 01:25:00,17.5,13.2,30.09,WSW,257,0.0,0.0,83,0.00,OVC,,0.00,0.0,WeatherDisplay:10.37,2013-01-03 07:25:00,
2013-01-03 01:30:00,17.6,13.3,30.09,WSW,257,0.0,0.0,83,0.00,OVC,,0.00,0.0,WeatherDisplay:10.37,2013-01-03 07:30:00,
2013-01-03 01:35:00,17.6,13.3,30.10,WSW,257,0.0,0.0,83,0.00,OVC,,0.00,0.0,WeatherDisplay:10.37,2013-01-03 07:35:00,
2013-01-03 01:40:00,17.6,13.3,30.10,WSW,257,0.0,0.0,83,0.00,OVC,,0.00,0.0,WeatherDisplay:10.37,2013-01-03 07:40:00,
2013-01-03 01:45:00,17.7,13.4,30.10,WSW,257,0.0,0.0,83,0.00,OVC,,0.00,0.0,WeatherDisplay:10.37,2013-01-03 07:45:00,
2013-01-03 01:50:00,17.6,13.3,30.10,West,271,2.3,2.3,83,0.00,OVC,,0.00,0.0,WeatherDisplay:10.37,2013-01-03 07:50:00,
2013-01-03 01:55:00,17.5,13.2,30.10,West,271,0.0,0.0,83,0.00,OVC,,0.00,0.0,WeatherDisplay:10.37,2013-01-03 07:55:00,
2013-01-03 02:00:00,17.5,13.2,30.10,WSW,256,1.1,1.1,83,0.00,OVC,,0.00,0.0,WeatherDisplay:10.37,2013-01-03 08:00:00,
2013-01-03 02:05:00,17.6,13.6,30.10,West,260,1.1,0.0,84,0.00,OVC,,0.00,0.0,WeatherDisplay:10.37,2013-01-03 08:05:00,
2013-01-03 02:10:00,17.7,13.7,30.10,WNW,287,2.3,0.0,84,0.00,OVC,,0.00,0.0,WeatherDisplay:10.37,2013-01-03 08:10:00,
2013-01-03 02:15:00,17.9,13.9,30.10,WNW,286,1.1,0.0,84,0.00,OVC,,0.00,0.0,WeatherDisplay:10.37,2013-01-03 08:15:00,
2013-01-03 02:20:00,17.9,13.9,30.11,NW,314,2.3,0.0,84,0.00,-SN,,0.00,0.0,WeatherDisplay:10.37,2013-01-03 08:20:00,
2013-01-03 02:25:00,17.9,13.9,30.11,NW,314,0.0,0.0,84,0.00,-SN,,0.00,0.0,WeatherDisplay:10.37,2013-01-03 08:25:00,
2013-01-03 02:30:00,18.0,14.0,30.11,NW,314,0.0,0.0,84,0.00,-SN,,0.00,0.0,WeatherDisplay:10.37,2013-01-03 08:30:00,
2013-01-03 02:35:00,18.0,14.0,30.10,NW,314,1.1,0.0,84,0.00,-SN,,0.00,0.0,WeatherDisplay:10.37,2013-01-03 08:35:00,
2013-01-03 02:40:00,18.0,14.0,30.10,NW,314,0.0,0.1,84,0.00,-SN,,0.00,0.0,WeatherDisplay:10.37,2013-01-03 08:40:00,
2013-01-03 02:45:00,18.0,14.0,30.10,NW,314,0.0,0.0,84,0.00,-SN,,0.00,0.0,WeatherDisplay:10.37,2013-01-03 08:45:00,
2013-01-03 02:50:00,18.0,14.0,30.10,NW,314,0.0,0.0,84,0.00,-SN,,0.00,0.0,WeatherDisplay:10.37,2013-01-03 08:50:00,
2013-01-03 02:55:00,18.1,14.4,30.11,NW,321,0.0,0.0,85,0.00,-SN,,0.00,0.0,WeatherDisplay:10.37,2013-01-03 08:55:00,
2013-01-03 03:00:00,18.2,14.4,30.11,NW,321,0.0,0.0,85,0.00,-SN,,0.00,0.0,WeatherDisplay:10.37,2013-01-03 09:00:00,
2013-01-03 03:05:00,18.2,14.4,30.11,NW,320,0.0,0.0,85,0.00,-SN,,0.00,0.0,WeatherDisplay:10.37,2013-01-03 09:05:00,
2013-01-03 03:10:00,18.2,14.4,30.10,WNW,290,2.3,2.3,85,0.00,-SN,,0.00,0.0,WeatherDisplay:10.37,2013-01-03 09:10:00,
2013-01-03 03:15:00,18.3,14.5,30.11,WNW,290,0.0,0.0,85,0.00,-SN,,0.00,0.0,WeatherDisplay:10.37,2013-01-03 09:15:00,
2013-01-03 03:20:00,18.5,14.7,30.11,WNW,286,0.0,0.0,85,0.00,-SN,,0.00,0.0,WeatherDisplay:10.37,2013-01-03 09:20:00,
2013-01-03 03:25:00,18.4,14.6,30.11,West,261,0.0,0.0,85,0.00,-SN,,0.00,0.0,WeatherDisplay:10.37,2013-01-03 09:25:00,
2013-01-03 03:30:00,18.5,15.0,30.11,West,261,0.0,0.0,86,0.00,-SN,,0.00,0.0,WeatherDisplay:10.37,2013-01-03 09:30:00,
2013-01-03 03:35:00,18.5,14.7,30.11,West,265,1.1,1.1,85,0.00,-SN,,0.00,0.0,WeatherDisplay:10.37,2013-01-03 09:35:00,
2013-01-03 03:40:00,18.5,15.0,30.12,West,265,0.0,0.0,86,0.00,-SN,,0.00,0.0,WeatherDisplay:10.37,2013-01-03 09:40:00,
2013-01-03 03:45:00,18.5,14.7,30.11,West,265,0.0,0.0,85,0.00,-SN,,0.00,0.0,WeatherDisplay:10.37,2013-01-03 09:45:00,
2013-01-03 03:50:00,18.5,14.7,30.12,WNW,295,1.1,1.1,85,0.00,-SN,,0.00,0.0,WeatherDisplay:10.37,2013-01-03 09:50:00,
2013-01-03 03:55:00,18.4,14.9,30.12,WNW,298,0.0,0.0,86,0.00,-SN,,0.00,0.0,WeatherDisplay:10.37,2013-01-03 09:55:00,
2013-01-03 04:00:00,18.5,15.0,30.11,West,273,1.1,1.1,86,0.00,-SN,,0.00,0.0,WeatherDisplay:10.37,2013-01-03 10:00:00,
2013-01-03 04:05:00,18.5,15.0,30.11,West,273,0.0,0.0,86,0.00,OVC,,0.00,0.0,WeatherDisplay:10.37,2013-01-03 10:05:00,
2013-01-03 04:10:00,18.5,15.0,30.12,West,273,0.0,0.0,86,0.00,OVC,,0.00,0.0,WeatherDisplay:10.37,2013-01-03 10:10:00,
2013-01-03 04:15:00,18.5,15.0,30.12,West,273,0.0,0.0,86,0.00,OVC,,0.00,0.0,WeatherDisplay:10.37,2013-01-03 10:15:00,
2013-01-03 04:20:00,18.6,15.1,30.12,West,273,0.0,0.0,86,0.00,OVC,,0.00,0.0,WeatherDisplay:10.37,2013-01-03 10:20:00,
2013-01-03 04:25:00,18.6,15.1,30.12,WSW,250,1.0,1.0,86,0.00,OVC,,0.00,0.0,WeatherDisplay:10.37,2013-01-03 10:25:00,
2013-01-03 04:30:00,18.6,15.1,30.12,SW,231,0.0,0.0,86,0.00,OVC,,0.00,0.0,WeatherDisplay:10.37,2013-01-03 10:30:00,
2013-01-03 04:35:00,18.5,15.0,30.12,SW,226,2.3,2.3,86,0.00,OVC,,0.00,0.0,WeatherDisplay:10.37,2013-01-03 10:35:00,
2013-01-03 04:40:00,18.4,15.2,30.13,NW,320,3.5,3.5,87,0.00,OVC,,0.00,0.0,WeatherDisplay:10.37,2013-01-03 10:40:00,
2013-01-03 04:46:00,18.4,15.2,30.12,NW,319,1.1,1.1,87,0.00,OVC,,0.00,0.0,WeatherDisplay:10.37,2013-01-03 10:46:00,
2013-01-03 04:51:00,18.4,15.2,30.13,WSW,254,1.1,0.0,87,0.00,OVC,,0.00,0.0,WeatherDisplay:10.37,2013-01-03 10:51:00,
2013-01-03 04:56:00,18.4,15.2,30.13,WNW,283,3.5,3.5,87,0.00,OVC,,0.00,0.0,WeatherDisplay:10.37,2013-01-03 10:56:00,
2013-01-03 05:01:00,18.3,15.1,30.13,North,5,1.1,1.1,87,0.00,OVC,,0.00,0.0,WeatherDisplay:10.37,2013-01-03 11:01:00,
2013-01-03 05:06:00,18.3,15.1,30.13,West,275,0.0,0.0,87,0.00,OVC,,0.00,0.0,WeatherDisplay:10.37,2013-01-03 11:06:00,
2013-01-03 05:11:00,18.4,15.2,30.13,West,275,0.0,0.0,87,0.00,OVC,,0.00,0.0,WeatherDisplay:10.37,2013-01-03 11:11:00,
2013-01-03 05:16:00,18.4,15.2,30.14,WSW,254,3.5,0.0,87,0.00,OVC,,0.00,0.0,WeatherDisplay:10.37,2013-01-03 11:16:00,
2013-01-03 05:21:00,18.4,15.2,30.14,North,355,2.3,2.3,87,0.00,OVC,,0.00,0.0,WeatherDisplay:10.37,2013-01-03 11:21:00,
2013-01-03 05:26:00,18.4,15.2,30.14,NW,322,3.5,3.5,87,0.00,OVC,,0.00,0.0,WeatherDisplay:10.37,2013-01-03 11:26:00,
2013-01-03 05:31:00,18.4,15.2,30.14,WSW,258,2.3,2.3,87,0.00,OVC,,0.00,0.0,WeatherDisplay:10.37,2013-01-03 11:31:00,
2013-01-03 05:36:00,18.4,15.4,30.14,WNW,286,1.0,1.0,88,0.00,OVC,,0.00,0.0,WeatherDisplay:10.37,2013-01-03 11:36:00,
2013-01-03 05:41:00,18.4,15.4,30.14,West,264,0.0,0.5,88,0.00,OVC,,0.00,0.0,WeatherDisplay:10.37,2013-01-03 11:41:00,
2013-01-03 05:46:00,18.4,15.4,30.14,WSW,252,2.0,2.0,88,0.00,OVC,,0.00,0.0,WeatherDisplay:10.37,2013-01-03 11:46:00,
2013-01-03 05:51:00,18.5,15.5,30.15,WSW,238,1.1,1.1,88,0.00,OVC,,0.00,0.0,WeatherDisplay:10.37,2013-01-03 11:51:00,
2013-01-03 05:56:00,18.5,15.5,30.15,South,188,5.8,5.8,88,0.00,OVC,,0.00,0.0,WeatherDisplay:10.37,2013-01-03 11:56:00,
2013-01-03 06:01:00,18.4,15.4,30.15,West,281,2.3,2.3,88,0.00,OVC,,0.00,0.0,WeatherDisplay:10.37,2013-01-03 12:01:00,
2013-01-03 06:06:00,18.5,15.5,30.15,WSW,247,2.3,2.3,88,0.00,OVC,,0.00,0.0,WeatherDisplay:10.37,2013-01-03 12:06:00,
2013-01-03 06:11:00,18.5,15.5,30.15,West,263,1.1,1.1,88,0.00,OVC,,0.00,0.0,WeatherDisplay:10.37,2013-01-03 12:11:00,
2013-01-03 06:16:00,18.5,15.5,30.15,WSW,244,1.1,1.1,88,0.00,OVC,,0.00,0.0,WeatherDisplay:10.37,2013-01-03 12:16:00,
2013-01-03 06:23:00,18.6,15.6,30.15,West,269,5.0,5.0,88,0.00,OVC,,0.00,0.0,WeatherDisplay:10.37,2013-01-03 12:23:00,
2013-01-03 06:28:00,18.6,15.9,30.15,West,277,1.1,1.1,89,0.00,OVC,,0.00,0.0,WeatherDisplay:10.37,2013-01-03 12:28:00,
2013-01-03 06:33:00,18.7,16.0,30.15,West,277,1.1,1.1,89,0.00,OVC,,0.00,0.0,WeatherDisplay:10.37,2013-01-03 12:33:00,
2013-01-03 06:38:00,18.6,15.9,30.15,NW,306,1.1,0.0,89,0.00,OVC,,0.00,0.0,WeatherDisplay:10.37,2013-01-03 12:38:00,
2013-01-03 06:43:00,18.7,16.0,30.15,WSW,246,3.0,3.0,89,0.00,OVC,,0.00,0.0,WeatherDisplay:10.37,2013-01-03 12:43:00,
2013-01-03 06:48:00,18.8,16.1,30.15,WSW,238,2.3,2.3,89,0.00,OVC,,0.00,0.0,WeatherDisplay:10.37,2013-01-03 12:48:00,
2013-01-03 06:53:00,18.8,16.1,30.16,WNW,302,2.0,2.0,89,0.00,OVC,,0.00,0.0,WeatherDisplay:10.37,2013-01-03 12:53:00,
2013-01-03 06:58:00,18.9,16.2,30.16,West,266,1.1,1.1,89,0.00,OVC,,0.00,0.0,WeatherDisplay:10.37,2013-01-03 12:58:00,
2013-01-03 07:03:00,19.0,16.3,30.16,WNW,298,2.3,2.3,89,0.00,OVC,,0.00,0.0,WeatherDisplay:10.37,2013-01-03 13:03:00,
2013-01-03 07:08:00,19.0,16.3,30.16,WNW,292,0.0,0.0,89,0.00,OVC,,0.00,0.0,WeatherDisplay:10.37,2013-01-03 13:08:00,
2013-01-03 07:13:00,19.1,16.4,30.16,West,281,1.1,1.1,89,0.00,OVC,,0.00,0.0,WeatherDisplay:10.37,2013-01-03 13:13:00,
2013-01-03 07:18:00,19.2,16.5,30.16,WSW,245,1.1,0.0,89,0.00,OVC,,0.00,0.0,WeatherDisplay:10.37,2013-01-03 13:18:00,
2013-01-03 07:23:00,19.3,16.8,30.16,WSW,251,4.0,4.0,90,0.00,OVC,,0.00,0.0,WeatherDisplay:10.37,2013-01-03 13:23:00,
2013-01-03 07:28:00,19.3,16.6,30.16,WSW,239,1.1,1.1,89,0.00,OVC,,0.00,0.0,WeatherDisplay:10.37,2013-01-03 13:28:00,
2013-01-03 07:33:00,19.4,16.9,30.17,SSW,192,1.0,0.0,90,0.00,OVC,,0.00,0.0,WeatherDisplay:10.37,2013-01-03 13:33:00,
2013-01-03 07:38:00,19.5,17.0,30.17,South,191,0.0,0.0,90,0.00,OVC,,0.00,0.0,WeatherDisplay:10.37,2013-01-03 13:38:00,
2013-01-03 07:43:00,19.5,16.8,30.17,West,261,3.5,3.5,89,0.00,OVC,,0.00,0.0,WeatherDisplay:10.37,2013-01-03 13:43:00,
2013-01-03 07:48:00,19.6,16.9,30.17,WSW,251,2.3,2.3,89,0.00,OVC,,0.00,0.0,WeatherDisplay:10.37,2013-01-03 13:48:00,
2013-01-03 07:53:00,19.6,16.9,30.17,WNW,291,1.1,1.1,89,0.00,OVC,,0.00,0.0,WeatherDisplay:10.37,2013-01-03 13:53:00,
2013-01-03 07:58:00,19.8,17.3,30.17,SW,236,0.0,0.0,90,0.00,OVC,,0.00,0.0,WeatherDisplay:10.37,2013-01-03 13:58:00,
2013-01-03 08:03:00,19.8,17.3,30.17,WSW,246,1.1,1.1,90,0.00,OVC,,0.00,0.0,WeatherDisplay:10.37,2013-01-03 14:03:00,
2013-01-03 08:08:00,19.8,17.1,30.18,West,269,1.1,0.0,89,0.00,OVC,,0.00,0.0,WeatherDisplay:10.37,2013-01-03 14:08:00,
2013-01-03 08:13:00,19.9,17.2,30.18,West,269,0.0,0.0,89,0.00,OVC,,0.00,0.0,WeatherDisplay:10.37,2013-01-03 14:13:00,
2013-01-03 08:18:00,20.0,17.3,30.18,WSW,252,3.5,3.5,89,0.00,OVC,,0.00,0.0,WeatherDisplay:10.37,2013-01-03 14:18:00,
2013-01-03 08:24:00,20.0,17.3,30.18,West,266,3.5,3.5,89,0.00,OVC,,0.00,0.0,WeatherDisplay:10.37,2013-01-03 14:24:00,
2013-01-03 08:29:00,20.0,17.3,30.18,WSW,257,6.9,6.9,89,0.00,OVC,,0.00,5.0,WeatherDisplay:10.37,2013-01-03 14:29:00,
2013-01-03 08:34:00,20.0,17.0,30.18,West,281,4.6,0.0,88,0.00,OVC,,0.00,7.0,WeatherDisplay:10.37,2013-01-03 14:34:00,
2013-01-03 08:39:00,20.1,17.1,30.19,West,278,4.6,4.6,88,0.00,OVC,,0.00,5.0,WeatherDisplay:10.37,2013-01-03 14:39:00,
2013-01-03 08:44:00,20.1,17.1,30.18,WSW,246,3.0,3.0,88,0.00,OVC,,0.00,9.0,WeatherDisplay:10.37,2013-01-03 14:44:00,
2013-01-03 08:49:00,20.1,17.1,30.18,NW,312,2.3,2.3,88,0.00,OVC,,0.00,11.0,WeatherDisplay:10.37,2013-01-03 14:49:00,
2013-01-03 08:54:00,20.2,17.2,30.18,SW,227,3.5,3.5,88,0.00,OVC,,0.00,11.0,WeatherDisplay:10.37,2013-01-03 14:54:00,
2013-01-03 08:59:00,20.2,17.2,30.19,WNW,284,6.0,6.0,88,0.00,OVC,,0.00,12.0,WeatherDisplay:10.37,2013-01-03 14:59:00,
2013-01-03 09:04:00,20.3,17.0,30.19,SW,230,3.5,3.5,87,0.00,-SN,,0.00,14.0,WeatherDisplay:10.37,2013-01-03 15:04:00,
2013-01-03 09:09:00,20.4,17.1,30.19,WSW,246,2.3,0.0,87,0.00,-SN,,0.00,16.0,WeatherDisplay:10.37,2013-01-03 15:09:00,
2013-01-03 09:14:00,20.4,17.1,30.20,NNW,329,0.0,0.0,87,0.00,-SN,,0.00,18.0,WeatherDisplay:10.37,2013-01-03 15:14:00,
2013-01-03 09:19:00,20.5,17.2,30.20,West,274,2.0,2.0,87,0.00,-SN,,0.00,21.0,WeatherDisplay:10.37,2013-01-03 15:19:00,
2013-01-03 09:24:00,20.4,17.1,30.20,NNW,331,1.1,1.1,87,0.00,-SN,,0.00,21.0,WeatherDisplay:10.37,2013-01-03 15:24:00,
2013-01-03 09:29:00,20.5,17.2,30.20,WNW,288,1.0,1.0,87,0.00,-SN,,0.00,25.0,WeatherDisplay:10.37,2013-01-03 15:29:00,
2013-01-03 09:34:00,20.6,17.3,30.20,West,265,3.5,3.5,87,0.00,-SN,,0.00,26.0,WeatherDisplay:10.37,2013-01-03 15:34:00,
2013-01-03 09:39:00,20.6,17.1,30.20,SW,227,1.1,1.1,86,0.00,-SN,,0.00,32.0,WeatherDisplay:10.37,2013-01-03 15:39:00,
2013-01-03 09:44:00,20.5,17.0,30.20,WSW,252,3.5,3.5,86,0.00,-SN,,0.00,37.0,WeatherDisplay:10.37,2013-01-03 15:44:00,
2013-01-03 09:49:00,20.4,16.6,30.20,WSW,237,8.1,8.1,85,0.00,-SN,,0.00,33.0,WeatherDisplay:10.37,2013-01-03 15:49:00,
2013-01-03 09:54:00,20.4,16.9,30.21,WSW,237,0.0,0.0,86,0.00,-SN,,0.00,37.0,WeatherDisplay:10.37,2013-01-03 15:54:00,
2013-01-03 09:59:00,20.5,16.7,30.21,WSW,245,2.3,2.3,85,0.00,-SN,,0.00,30.0,WeatherDisplay:10.37,2013-01-03 15:59:00,
2013-01-03 10:04:00,20.6,16.8,30.21,WNW,287,0.0,0.0,85,0.00,-SN,,0.00,40.0,WeatherDisplay:10.37,2013-01-03 16:04:00,
2013-01-03 10:09:00,20.7,16.9,30.22,WNW,300,1.1,1.1,85,0.00,-SN,,0.00,39.0,WeatherDisplay:10.37,2013-01-03 16:09:00,
2013-01-03 10:14:00,20.9,17.1,30.22,WSW,252,3.5,3.5,85,0.00,-SN,,0.00,46.0,WeatherDisplay:10.37,2013-01-03 16:14:00,
2013-01-03 10:19:00,20.9,17.1,30.22,WSW,257,0.0,0.1,85,0.00,-SN,,0.00,47.0,WeatherDisplay:10.37,2013-01-03 16:19:00,
2013-01-03 10:24:00,21.0,16.9,30.22,SW,227,4.0,4.0,84,0.00,-SN,,0.00,51.0,WeatherDisplay:10.37,2013-01-03 16:24:00,
2013-01-03 10:29:00,20.9,16.3,30.22,WSW,244,3.5,3.5,82,0.00,-SN,,0.00,53.0,WeatherDisplay:10.37,2013-01-03 16:29:00,
2013-01-03 10:34:00,20.7,16.1,30.22,WSW,256,2.3,2.3,82,0.00,-SN,,0.00,56.0,WeatherDisplay:10.37,2013-01-03 16:34:00,
2013-01-03 10:39:00,20.6,16.0,30.22,WNW,292,2.3,2.3,82,0.00,-SN,,0.00,65.0,WeatherDisplay:10.37,2013-01-03 16:39:00,
2013-01-03 10:44:00,20.6,16.0,30.22,NNE,33,2.3,2.3,82,0.00,-SN,,0.00,67.0,WeatherDisplay:10.37,2013-01-03 16:44:00,
2013-01-03 10:49:00,20.7,16.4,30.22,WSW,258,0.0,0.0,83,0.00,-SN,,0.00,72.0,WeatherDisplay:10.37,2013-01-03 16:49:00,
2013-01-03 10:54:00,20.8,15.9,30.22,West,266,3.5,3.5,81,0.00,-SN,,0.00,74.0,WeatherDisplay:10.37,2013-01-03 16:54:00,
2013-01-03 10:59:00,20.7,15.8,30.21,SW,231,4.0,4.0,81,0.00,-SN,,0.00,74.0,WeatherDisplay:10.37,2013-01-03 16:59:00,
2013-01-03 11:04:00,20.6,15.7,30.21,SSW,202,1.1,0.0,81,0.00,OVC,,0.00,81.0,WeatherDisplay:10.37,2013-01-03 17:04:00,
2013-01-03 11:09:00,20.6,15.4,30.22,South,188,4.0,4.0,80,0.00,OVC,,0.00,83.0,WeatherDisplay:10.37,2013-01-03 17:09:00,
2013-01-03 11:14:00,20.7,15.5,30.21,SW,234,3.5,3.5,80,0.00,OVC,,0.00,91.0,WeatherDisplay:10.37,2013-01-03 17:14:00,
2013-01-03 11:19:00,20.6,15.1,30.21,WNW,302,3.5,3.5,79,0.00,OVC,,0.00,84.0,WeatherDisplay:10.37,2013-01-03 17:19:00,
2013-01-03 11:24:00,20.6,15.4,30.21,West,270,2.3,2.3,80,0.00,OVC,,0.00,93.0,WeatherDisplay:10.37,2013-01-03 17:24:00,
2013-01-03 11:29:00,20.6,15.1,30.20,WSW,246,3.5,3.5,79,0.00,OVC,,0.00,79.0,WeatherDisplay:10.37,2013-01-03 17:29:00,
2013-01-03 11:34:00,20.6,15.4,30.21,West,266,3.5,3.5,80,0.00,OVC,,0.00,86.0,WeatherDisplay:10.37,2013-01-03 17:34:00,
2013-01-03 11:39:00,20.7,15.2,30.21,WSW,257,2.3,2.3,79,0.00,OVC,,0.00,93.0,WeatherDisplay:10.37,2013-01-03 17:39:00,
2013-01-03 11:44:00,20.6,15.4,30.21,WSW,240,0.0,0.0,80,0.00,OVC,,0.00,93.0,WeatherDisplay:10.37,2013-01-03 17:44:00,
2013-01-03 11:49:00,20.7,15.2,30.21,SW,221,3.5,3.5,79,0.00,OVC,,0.00,120.0,WeatherDisplay:10.37,2013-01-03 17:49:00,
2013-01-03 11:54:00,20.6,14.8,30.20,WNW,284,6.0,6.0,78,0.00,OVC,,0.00,148.0,WeatherDisplay:10.37,2013-01-03 17:54:00,
2013-01-03 11:59:00,20.5,14.7,30.20,SW,230,1.1,1.1,78,0.00,OVC,,0.00,144.0,WeatherDisplay:10.37,2013-01-03 17:59:00,
2013-01-03 12:04:00,20.6,14.8,30.20,WSW,241,3.0,3.0,78,0.00,OVC,,0.00,70.0,WeatherDisplay:10.37,2013-01-03 18:04:00,
2013-01-03 12:09:00,20.4,14.6,30.20,NW,321,2.3,2.3,78,0.00,OVC,,0.00,120.0,WeatherDisplay:10.37,2013-01-03 18:09:00,
2013-01-03 12:14:00,20.5,14.7,30.19,WNW,296,3.5,0.0,78,0.00,OVC,,0.00,149.0,WeatherDisplay:10.37,2013-01-03 18:14:00,
2013-01-03 12:25:00,20.6,14.2,30.19,WSW,246,4.0,4.0,76,0.00,OVC,,0.00,37.0,WeatherDisplay:10.37,2013-01-03 18:25:00,
2013-01-03 12:30:00,20.4,14.3,30.19,West,281,3.5,3.5,77,0.00,OVC,,0.00,81.0,WeatherDisplay:10.37,2013-01-03 18:30:00,
2013-01-03 12:35:00,20.3,14.2,30.19,West,262,3.5,3.5,77,0.00,OVC,,0.00,77.0,WeatherDisplay:10.37,2013-01-03 18:35:00,
2013-01-03 12:40:00,20.4,14.6,30.18,North,9,2.0,2.0,78,0.00,OVC,,0.00,116.0,WeatherDisplay:10.37,2013-01-03 18:40:00,
2013-01-03 12:45:00,20.7,14.6,30.18,North,360,1.1,1.1,77,0.00,OVC,,0.00,332.0,WeatherDisplay:10.37,2013-01-03 18:45:00,
2013-01-03 12:50:00,21.2,15.4,30.18,WNW,290,4.6,4.6,78,0.00,OVC,,0.00,253.0,WeatherDisplay:10.37,2013-01-03 18:50:00,
2013-01-03 12:55:00,21.5,15.4,30.18,SW,233,5.8,5.8,77,0.00,OVC,,0.00,148.0,WeatherDisplay:10.37,2013-01-03 18:55:00,
2013-01-03 13:00:00,21.4,14.7,30.18,NNW,347,1.1,1.1,75,0.00,OVC,,0.00,58.0,WeatherDisplay:10.37,2013-01-03 19:00:00,
2013-01-03 13:05:00,21.5,15.1,30.18,WSW,252,2.3,2.3,76,0.00,BKN,,0.00,90.0,WeatherDisplay:10.37,2013-01-03 19:05:00,
2013-01-03 13:10:00,21.5,14.8,30.18,SW,235,3.5,3.5,75,0.00,BKN,,0.00,49.0,WeatherDisplay:10.37,2013-01-03 19:10:00,
2013-01-03 13:15:00,21.5,14.8,30.18,South,180,3.5,3.5,75,0.00,BKN,,0.00,49.0,WeatherDisplay:10.37,2013-01-03 19:15:00,
2013-01-03 13:52:00,21.9,14.6,30.18,NE,42,3.5,3.5,73,0.00,SCT,,0.00,40.0,WeatherDisplay:10.37,2013-01-03 19:52:00,
2013-01-03 13:57:00,22.0,14.7,30.17,SSE,154,2.3,2.3,73,0.00,SCT,,0.00,39.0,WeatherDisplay:10.37,2013-01-03 19:57:00,
2013-01-03 14:02:00,22.1,14.8,30.17,WSW,242,3.5,3.5,73,0.00,CLR,,0.00,42.0,WeatherDisplay:10.37,2013-01-03 20:02:00,
2013-01-03 14:07:00,22.1,14.8,30.17,WSW,244,3.5,3.5,73,0.00,CLR,,0.00,39.0,WeatherDisplay:10.37,2013-01-03 20:07:00,
2013-01-03 14:12:00,22.0,14.3,30.17,SSE,167,1.1,1.1,72,0.00,CLR,,0.00,39.0,WeatherDisplay:10.37,2013-01-03 20:12:00,
2013-01-03 14:17:00,22.0,14.7,30.17,West,277,5.8,5.8,73,0.00,CLR,,0.00,33.0,WeatherDisplay:10.37,2013-01-03 20:17:00,
2013-01-03 14:22:00,22.0,14.7,30.17,WSW,245,4.6,4.6,73,0.00,CLR,,0.00,32.0,WeatherDisplay:10.37,2013-01-03 20:22:00,
2013-01-03 14:27:00,21.9,14.3,30.17,West,259,3.5,3.5,72,0.00,CLR,,0.00,32.0,WeatherDisplay:10.37,2013-01-03 20:27:00,
2013-01-03 14:32:00,21.9,14.6,30.17,West,261,5.8,5.8,73,0.00,CLR,,0.00,28.0,WeatherDisplay:10.37,2013-01-03 20:32:00,
2013-01-03 14:37:00,21.7,14.1,30.17,SW,236,3.0,3.0,72,0.00,CLR,,0.00,28.0,WeatherDisplay:10.37,2013-01-03 20:37:00,
2013-01-03 14:42:00,21.6,14.0,30.18,NW,315,3.5,3.5,72,0.00,CLR,,0.00,26.0,WeatherDisplay:10.37,2013-01-03 20:42:00,
2013-01-03 14:47:00,21.6,14.0,30.18,WNW,287,3.5,3.5,72,0.00,CLR,,0.00,25.0,WeatherDisplay:10.37,2013-01-03 20:47:00,
2013-01-03 14:52:00,21.5,13.9,30.18,West,261,3.5,3.5,72,0.00,CLR,,0.00,25.0,WeatherDisplay:10.37,2013-01-03 20:52:00,
2013-01-03 14:57:00,21.5,14.2,30.18,SW,219,3.5,3.5,73,0.00,CLR,,0.00,23.0,WeatherDisplay:10.37,2013-01-03 20:57:00,
2013-01-03 15:02:00,21.4,13.8,30.18,NNW,340,3.5,3.5,72,0.00,CLR,,0.00,23.0,WeatherDisplay:10.37,2013-01-03 21:02:00,
2013-01-03 15:07:00,21.3,14.0,30.17,WSW,256,2.3,2.3,73,0.00,CLR,,0.00,23.0,WeatherDisplay:10.37,2013-01-03 21:07:00,
2013-01-03 15:12:00,21.3,14.0,30.17,SW,232,1.0,1.0,73,0.00,CLR,,0.00,21.0,WeatherDisplay:10.37,2013-01-03 21:12:00,
2013-01-03 15:20:00,21.3,14.0,30.18,WSW,255,4.0,4.0,73,0.00,CLR,,0.00,19.0,WeatherDisplay:10.37,2013-01-03 21:20:00,
2013-01-03 15:25:00,21.2,13.9,30.18,NW,306,8.0,8.0,73,0.00,CLR,,0.00,19.0,WeatherDisplay:10.37,2013-01-03 21:25:00,
2013-01-03 15:30:00,21.1,14.1,30.17,WSW,238,2.3,2.3,74,0.00,CLR,,0.00,18.0,WeatherDisplay:10.37,2013-01-03 21:30:00,
2013-01-03 15:35:00,21.0,14.0,30.17,West,278,3.5,3.5,74,0.00,CLR,,0.00,18.0,WeatherDisplay:10.37,2013-01-03 21:35:00,
2013-01-03 15:40:00,21.0,13.7,30.17,SSW,203,6.9,6.9,73,0.00,CLR,,0.00,16.0,WeatherDisplay:10.37,2013-01-03 21:40:00,
2013-01-03 15:46:00,21.0,13.7,30.17,SSW,211,5.8,5.8,73,0.00,CLR,,0.00,14.0,WeatherDisplay:10.37,2013-01-03 21:46:00,
2013-01-03 15:51:00,21.0,14.0,30.18,SW,221,0.0,0.0,74,0.00,CLR,,0.00,14.0,WeatherDisplay:10.37,2013-01-03 21:51:00,
2013-01-03 15:56:00,20.9,13.6,30.18,SW,217,1.1,1.1,73,0.00,CLR,,0.00,12.0,WeatherDisplay:10.37,2013-01-03 21:56:00,
2013-01-03 16:01:00,20.7,13.4,30.18,West,279,1.0,1.0,73,0.00,CLR,,0.00,11.0,WeatherDisplay:10.37,2013-01-03 22:01:00,
2013-01-03 16:06:00,20.3,13.3,30.18,SE,127,4.6,4.6,74,0.00,CLR,,0.00,11.0,WeatherDisplay:10.37,2013-01-03 22:06:00,
2013-01-03 16:11:00,20.2,13.2,30.18,SE,135,2.3,2.3,74,0.00,CLR,,0.00,9.0,WeatherDisplay:10.37,2013-01-03 22:11:00,
2013-01-03 16:16:00,20.0,13.0,30.18,WSW,253,8.1,8.1,74,0.00,CLR,,0.00,7.0,WeatherDisplay:10.37,2013-01-03 22:16:00,
2013-01-03 16:21:00,19.9,13.3,30.18,South,173,1.1,1.1,75,0.00,CLR,,0.00,5.0,WeatherDisplay:10.37,2013-01-03 22:21:00,
2013-01-03 16:26:00,19.8,12.8,30.18,SSW,212,1.0,1.0,74,0.00,CLR,,0.00,0.0,WeatherDisplay:10.37,2013-01-03 22:26:00,
2013-01-03 16:31:00,19.8,13.2,30.17,SSE,153,3.5,3.5,75,0.00,CLR,,0.00,0.0,WeatherDisplay:10.37,2013-01-03 22:31:00,
2013-01-03 16:36:00,19.7,13.1,30.18,West,269,3.5,0.0,75,0.00,CLR,,0.00,0.0,WeatherDisplay:10.37,2013-01-03 22:36:00,
2013-01-03 16:41:00,19.6,13.0,30.18,West,269,1.1,1.1,75,0.00,CLR,,0.00,0.0,WeatherDisplay:10.37,2013-01-03 22:41:00,
2013-01-03 16:46:00,19.5,12.9,30.18,SW,229,1.1,0.0,75,0.00,CLR,,0.00,0.0,WeatherDisplay:10.37,2013-01-03 22:46:00,
2013-01-03 16:51:00,19.3,13.0,30.18,SSE,157,2.0,2.0,76,0.00,CLR,,0.00,0.0,WeatherDisplay:10.37,2013-01-03 22:51:00,
2013-01-03 16:56:00,19.1,12.8,30.18,South,190,1.1,1.1,76,0.00,CLR,,0.00,0.0,WeatherDisplay:10.37,2013-01-03 22:56:00,
2013-01-03 17:01:00,18.8,12.8,30.18,SSW,207,2.3,2.3,77,0.00,CLR,,0.00,0.0,WeatherDisplay:10.37,2013-01-03 23:01:00,
2013-01-03 17:06:00,18.6,12.6,30.18,SSW,207,0.0,0.0,77,0.00,CLR,,0.00,0.0,WeatherDisplay:10.37,2013-01-03 23:06:00,
2013-01-03 17:11:00,18.2,12.5,30.18,SSE,161,2.3,2.3,78,0.00,CLR,,0.00,0.0,WeatherDisplay:10.37,2013-01-03 23:11:00,
2013-01-03 17:16:00,18.1,12.4,30.18,East,89,1.1,1.1,78,0.00,CLR,,0.00,0.0,WeatherDisplay:10.37,2013-01-03 23:16:00,
2013-01-03 17:21:00,18.0,12.3,30.18,SSW,210,1.1,1.1,78,0.00,CLR,,0.00,0.0,WeatherDisplay:10.37,2013-01-03 23:21:00,
2013-01-03 17:26:00,17.8,12.1,30.18,SW,217,2.3,2.3,78,0.00,CLR,,0.00,0.0,WeatherDisplay:10.37,2013-01-03 23:26:00,
2013-01-03 17:31:00,17.7,12.0,30.18,West,262,1.1,0.0,78,0.00,CLR,,0.00,0.0,WeatherDisplay:10.37,2013-01-03 23:31:00,
2013-01-03 17:36:00,17.4,11.7,30.18,SW,236,3.5,3.5,78,0.00,CLR,,0.00,0.0,WeatherDisplay:10.37,2013-01-03 23:36:00,
2013-01-03 17:41:00,17.3,11.9,30.18,WSW,245,1.1,1.1,79,0.00,CLR,,0.00,0.0,WeatherDisplay:10.37,2013-01-03 23:41:00,
2013-01-03 17:46:00,17.0,11.6,30.18,West,281,3.5,3.5,79,0.00,CLR,,0.00,0.0,WeatherDisplay:10.37,2013-01-03 23:46:00,
2013-01-03 17:51:00,16.9,11.5,30.17,WSW,257,0.0,0.0,79,0.00,CLR,,0.00,0.0,WeatherDisplay:10.37,2013-01-03 23:51:00,
2013-01-03 17:56:00,16.7,11.3,30.17,WSW,258,4.6,4.6,79,0.00,CLR,,0.00,0.0,WeatherDisplay:10.37,2013-01-03 23:56:00,
2013-01-03 18:01:00,16.5,11.1,30.17,WSW,248,3.0,3.0,79,0.00,CLR,,0.00,0.0,WeatherDisplay:10.37,2013-01-04 00:01:00,
2013-01-03 18:06:00,16.4,11.0,30.17,SSE,151,3.5,3.5,79,0.00,CLR,,0.00,0.0,WeatherDisplay:10.37,2013-01-04 00:06:00,
2013-01-03 18:11:00,16.2,10.8,30.16,WSW,245,3.5,3.5,79,0.00,CLR,,0.00,0.0,WeatherDisplay:10.37,2013-01-04 00:11:00,
2013-01-03 18:16:00,16.1,10.7,30.17,SW,215,1.1,1.1,79,0.00,CLR,,0.00,0.0,WeatherDisplay:10.37,2013-01-04 00:16:00,
2013-01-03 18:21:00,16.0,10.6,30.16,SW,235,3.5,3.5,79,0.00,CLR,,0.00,0.0,WeatherDisplay:10.37,2013-01-04 00:21:00,
2013-01-03 18:26:00,15.9,10.5,30.16,SW,235,0.0,0.1,79,0.00,CLR,,0.00,0.0,WeatherDisplay:10.37,2013-01-04 00:26:00,
2013-01-03 18:31:00,15.7,10.3,30.16,WSW,248,1.1,1.1,79,0.00,CLR,,0.00,0.0,WeatherDisplay:10.37,2013-01-04 00:31:00,
2013-01-03 18:36:00,15.6,10.2,30.15,SSW,202,2.3,2.3,79,0.00,CLR,,0.00,0.0,WeatherDisplay:10.37,2013-01-04 00:36:00,
2013-01-03 18:41:00,15.5,10.1,30.16,SSW,199,1.1,1.1,79,0.00,CLR,,0.00,0.0,WeatherDisplay:10.37,2013-01-04 00:41:00,
2013-01-03 18:46:00,15.4,10.1,30.15,SSW,199,1.1,0.0,79,0.00,CLR,,0.00,0.0,WeatherDisplay:10.37,2013-01-04 00:46:00,
2013-01-03 18:51:00,15.3,10.0,30.15,SSW,192,3.5,3.5,79,0.00,CLR,,0.00,0.0,WeatherDisplay:10.37,2013-01-04 00:51:00,
2013-01-03 18:56:00,15.2,9.9,30.15,SSE,164,1.1,1.1,79,0.00,CLR,,0.00,0.0,WeatherDisplay:10.37,2013-01-04 00:56:00,
2013-01-03 19:01:00,15.1,9.8,30.15,SW,224,2.3,2.3,79,0.00,CLR,,0.00,0.0,WeatherDisplay:10.37,2013-01-04 01:01:00,
2013-01-03 19:06:00,14.9,9.6,30.15,WNW,283,6.0,6.0,79,0.00,CLR,,0.00,0.0,WeatherDisplay:10.37,2013-01-04 01:06:00,
2013-01-03 19:11:00,14.8,9.2,30.14,SSE,164,2.3,2.3,78,0.00,CLR,,0.00,0.0,WeatherDisplay:10.37,2013-01-04 01:11:00,
2013-01-03 19:16:00,14.6,9.0,30.14,SW,235,2.0,2.0,78,0.00,CLR,,0.00,0.0,WeatherDisplay:10.37,2013-01-04 01:16:00,
2013-01-03 19:21:00,14.5,8.9,30.15,SW,232,2.3,2.3,78,0.00,CLR,,0.00,0.0,WeatherDisplay:10.37,2013-01-04 01:21:00,
2013-01-03 19:26:00,14.3,9.0,30.15,West,263,5.8,5.8,79,0.00,CLR,,0.00,0.0,WeatherDisplay:10.37,2013-01-04 01:26:00,
2013-01-03 19:31:00,14.0,8.7,30.15,West,271,0.0,0.0,79,0.00,CLR,,0.00,0.0,WeatherDisplay:10.37,2013-01-04 01:31:00,
2013-01-03 19:36:00,13.7,8.4,30.15,West,271,6.9,6.9,79,0.00,CLR,,0.00,0.0,WeatherDisplay:10.37,2013-01-04 01:36:00,
2013-01-03 19:41:00,13.6,8.3,30.15,WSW,242,0.0,0.0,79,0.00,CLR,,0.00,0.0,WeatherDisplay:10.37,2013-01-04 01:41:00,
2013-01-03 19:46:00,13.5,8.2,30.15,SW,215,2.3,2.3,79,0.00,CLR,,0.00,0.0,WeatherDisplay:10.37,2013-01-04 01:46:00,
2013-01-03 19:51:00,13.4,8.1,30.15,WSW,240,1.1,1.1,79,0.00,CLR,,0.00,0.0,WeatherDisplay:10.37,2013-01-04 01:51:00,
2013-01-03 19:56:00,13.3,8.0,30.15,WSW,252,3.5,3.5,79,0.00,CLR,,0.00,0.0,WeatherDisplay:10.37,2013-01-04 01:56:00,
2013-01-03 20:01:00,13.2,7.9,30.15,WSW,256,3.5,3.5,79,0.00,CLR,,0.00,0.0,WeatherDisplay:10.37,2013-01-04 02:01:00,
2013-01-03 20:06:00,13.2,7.9,30.15,West,261,2.3,2.3,79,0.00,CLR,,0.00,0.0,WeatherDisplay:10.37,2013-01-04 02:06:00,
2013-01-03 20:11:00,13.1,7.8,30.14,WSW,246,4.0,4.0,79,0.00,CLR,,0.00,0.0,WeatherDisplay:10.37,2013-01-04 02:11:00,
2013-01-03 20:16:00,13.0,7.7,30.14,SW,232,1.0,1.0,79,0.00,CLR,,0.00,0.0,WeatherDisplay:10.37,2013-01-04 02:16:00,
2013-01-03 20:21:00,12.9,7.6,30.14,SE,138,1.1,1.1,79,0.00,CLR,,0.00,0.0,WeatherDisplay:10.37,2013-01-04 02:21:00,
2013-01-03 20:26:00,12.7,7.4,30.14,SW,223,2.3,2.3,79,0.00,CLR,,0.00,0.0,WeatherDisplay:10.37,2013-01-04 02:26:00,
2013-01-03 20:31:00,12.6,7.3,30.14,SSW,203,1.1,1.1,79,0.00,CLR,,0.00,0.0,WeatherDisplay:10.37,2013-01-04 02:31:00,
2013-01-03 20:36:00,12.5,7.5,30.14,WSW,242,2.3,2.3,80,0.00,CLR,,0.00,0.0,WeatherDisplay:10.37,2013-01-04 02:36:00,
2013-01-03 20:41:00,12.4,7.1,30.14,WSW,252,3.5,3.5,79,0.00,CLR,,0.00,0.0,WeatherDisplay:10.37,2013-01-04 02:41:00,
2013-01-03 20:46:00,12.3,7.3,30.14,ESE,109,1.1,1.1,80,0.00,CLR,,0.00,0.0,WeatherDisplay:10.37,2013-01-04 02:46:00,
2013-01-03 20:51:00,12.2,7.2,30.13,WSW,249,3.5,3.5,80,0.00,CLR,,0.00,0.0,WeatherDisplay:10.37,2013-01-04 02:51:00,
2013-01-03 20:56:00,12.2,7.2,30.13,SW,219,2.3,2.3,80,0.00,CLR,,0.00,0.0,WeatherDisplay:10.37,2013-01-04 02:56:00,
2013-01-03 21:01:00,12.2,7.2,30.13,SW,226,0.0,0.0,80,0.00,BKN,,0.00,0.0,WeatherDisplay:10.37,2013-01-04 03:01:00,
2013-01-03 21:06:00,12.1,7.1,30.13,SW,215,1.1,1.1,80,0.00,BKN,,0.00,0.0,WeatherDisplay:10.37,2013-01-04 03:06:00,
2013-01-03 21:11:00,12.1,7.1,30.13,SW,221,6.0,6.0,80,0.00,BKN,,0.00,0.0,WeatherDisplay:10.37,2013-01-04 03:11:00,
2013-01-03 21:16:00,12.0,7.0,30.12,WSW,245,3.5,3.5,80,0.00,BKN,,0.00,0.0,WeatherDisplay:10.37,2013-01-04 03:16:00,
2013-01-03 21:22:00,11.9,6.9,30.12,West,263,3.5,0.0,80,0.00,BKN,,0.00,0.0,WeatherDisplay:10.37,2013-01-04 03:22:00,
2013-01-03 21:27:00,11.8,6.8,30.11,WSW,256,1.1,0.0,80,0.00,BKN,,0.00,0.0,WeatherDisplay:10.37,2013-01-04 03:27:00,
2013-01-03 21:32:00,11.8,7.1,30.11,WSW,240,3.5,3.5,81,0.00,BKN,,0.00,0.0,WeatherDisplay:10.37,2013-01-04 03:32:00,
2013-01-03 21:37:00,11.7,7.0,30.11,SW,232,2.3,2.3,81,0.00,BKN,,0.00,0.0,WeatherDisplay:10.37,2013-01-04 03:37:00,
2013-01-03 21:42:00,11.7,7.0,30.11,West,274,6.0,6.0,81,0.00,BKN,,0.00,0.0,WeatherDisplay:10.37,2013-01-04 03:42:00,
2013-01-03 21:47:00,11.6,7.2,30.11,SSE,148,2.3,2.3,82,0.00,BKN,,0.00,0.0,WeatherDisplay:10.37,2013-01-04 03:47:00,
2013-01-03 21:52:00,11.7,7.3,30.11,SW,223,2.3,2.3,82,0.00,BKN,,0.00,0.0,WeatherDisplay:10.37,2013-01-04 03:52:00,
2013-01-03 21:57:00,11.8,7.6,30.10,West,275,2.3,2.3,83,0.00,BKN,,0.00,0.0,WeatherDisplay:10.37,2013-01-04 03:57:00,
2013-01-03 22:02:00,11.8,7.6,30.10,SSW,199,2.0,2.0,83,0.00,SCT,,0.00,0.0,WeatherDisplay:10.37,2013-01-04 04:02:00,
2013-01-03 22:07:00,11.9,7.7,30.10,SW,217,2.3,2.3,83,0.00,SCT,,0.00,0.0,WeatherDisplay:10.37,2013-01-04 04:07:00,
2013-01-03 22:12:00,11.9,7.7,30.10,WSW,246,0.0,0.3,83,0.00,SCT,,0.00,0.0,WeatherDisplay:10.37,2013-01-04 04:12:00,
2013-01-03 22:17:00,11.9,7.7,30.10,West,273,2.3,2.3,83,0.00,SCT,,0.00,0.0,WeatherDisplay:10.37,2013-01-04 04:17:00,
2013-01-03 22:22:00,12.0,8.1,30.10,West,272,1.1,1.1,84,0.00,SCT,,0.00,0.0,WeatherDisplay:10.37,2013-01-04 04:22:00,
2013-01-03 22:27:00,12.1,8.2,30.10,SW,234,1.1,1.1,84,0.00,SCT,,0.00,0.0,WeatherDisplay:10.37,2013-01-04 04:27:00,
2013-01-03 22:32:00,12.2,8.3,30.10,SW,224,1.0,1.0,84,0.00,SCT,,0.00,0.0,WeatherDisplay:10.37,2013-01-04 04:32:00,
2013-01-03 22:38:00,12.2,8.3,30.10,SW,220,2.0,2.0,84,0.00,SCT,,0.00,0.0,WeatherDisplay:10.37,2013-01-04 04:38:00,
2013-01-03 22:43:00,12.3,8.4,30.10,SW,215,2.3,0.0,84,0.00,SCT,,0.00,0.0,WeatherDisplay:10.37,2013-01-04 04:43:00,
2013-01-03 22:48:00,12.3,8.7,30.10,South,175,2.3,2.3,85,0.00,SCT,,0.00,0.0,WeatherDisplay:10.37,2013-01-04 04:48:00,
2013-01-03 22:53:00,12.4,8.7,30.09,SSE,149,3.5,3.5,85,0.00,SCT,,0.00,0.0,WeatherDisplay:10.37,2013-01-04 04:53:00,
2013-01-03 22:58:00,12.4,8.5,30.08,SSE,160,2.3,2.3,84,0.00,SCT,,0.00,0.0,WeatherDisplay:10.37,2013-01-04 04:58:00,
2013-01-03 23:02:00,12.5,8.8,30.08,SSW,208,3.5,3.5,85,0.00,BKN,,0.00,0.0,WeatherDisplay:10.37,2013-01-04 05:02:00,
2013-01-03 23:03:00,12.4,8.7,30.09,South,190,3.5,3.5,85,0.00,BKN,,0.00,0.0,WeatherDisplay:10.37,2013-01-04 05:03:00,
2013-01-03 23:08:00,12.5,8.8,30.09,West,273,3.5,3.5,85,0.00,BKN,,0.00,0.0,WeatherDisplay:10.37,2013-01-04 05:08:00,
2013-01-03 23:13:00,12.7,9.0,30.09,SW,215,0.0,0.0,85,0.00,BKN,,0.00,0.0,WeatherDisplay:10.37,2013-01-04 05:13:00,
2013-01-03 23:18:00,12.7,9.0,30.08,SSE,165,2.3,2.3,85,0.00,SCT,,0.00,0.0,WeatherDisplay:10.37,2013-01-04 05:18:00,
2013-01-03 23:23:00,12.8,9.1,30.07,SSW,211,3.0,3.0,85,0.00,SCT,,0.00,0.0,WeatherDisplay:10.37,2013-01-04 05:23:00,
2013-01-03 23:28:00,12.9,9.2,30.07,SSW,194,3.5,3.5,85,0.00,SCT,,0.00,0.0,WeatherDisplay:10.37,2013-01-04 05:28:00,
2013-01-03 23:33:00,13.0,9.3,30.07,SW,227,1.1,1.1,85,0.00,SCT,,0.00,0.0,WeatherDisplay:10.37,2013-01-04 05:33:00,
2013-01-03 23:38:00,12.9,9.2,30.06,WSW,240,3.5,3.5,85,0.00,SCT,,0.00,0.0,WeatherDisplay:10.37,2013-01-04 05:38:00,
2013-01-03 23:43:00,12.8,9.1,30.05,ESE,122,3.5,3.5,85,0.00,SCT,,0.00,0.0,WeatherDisplay:10.37,2013-01-04 05:43:00,
2013-01-03 23:48:00,12.8,9.4,30.06,SSE,156,0.0,0.0,86,0.00,SCT,,0.00,0.0,WeatherDisplay:10.37,2013-01-04 05:48:00,
2013-01-03 23:53:00,12.8,9.1,30.05,SE,138,3.5,3.5,85,0.00,SCT,,0.00,0.0,WeatherDisplay:10.37,2013-01-04 05:53:00,
2013-01-03 23:58:00,12.8,9.1,30.06,West,265,3.5,3.5,85,0.00,SCT,,0.00,0.0,WeatherDisplay:10.37,2013-01-04 05:58:00,